Regional Weather Roundup
Issued by NWS

Home | Current Version | Previous Version | Text Only | Print | Product List | Glossary Off
Versions: 1 2 3 4 5 6 7 8 9 10 11 12 13 14 15 16 17 18 19 20 21 22 23 24 25 26 27 28 29 30 31 32 33 34 35 36 37 38 39 40 41 42 43 44 45 46 47 48 49 50

000
ASUS45 KCYS 260310
RWRWY

WYOMING REGIONAL WEATHER ROUNDUP
NATIONAL WEATHER SERVICE CHEYENNE WY
800 PM MST SAT FEB 25 2017

NOTE:  "FAIR" INDICATES FEW OR NO CLOUDS BELOW 12,000 FEET
WITH NO SIGNIFICANT WEATHER AND/OR OBSTRUCTIONS TO VISIBILITY.

WYZ001-260400-
YELLOWSTONE NATIONAL PARK

CITY           SKY/WX    TMP DP  RH WIND       PRES   REMARKS
LK YELLOWSTONE   N/A      0  -3  87 CALM      29.74S
W YELLOWSTONE  NOT AVBL

$$
WYZ002>013-054>058-071-098>099-260400-
NORTHERN WYOMING

CITY           SKY/WX    TMP DP  RH WIND       PRES   REMARKS
JACKSON        MOCLDY    12   5  73 S12       29.82S WCI  -2
CODY           NOT AVBL
GREYBULL       FAIR      28   7  41 W17       29.70S WCI  16
WORLAND        FAIR      23   7  50 NW7       29.70S WCI  15
SHERIDAN       CLOUDY    22  15  75 SE15      29.69F WCI   9
BUFFALO        FAIR      20  13  74 NW9       29.67S WCI   9
GILLETTE       MOCLDY    21  18  88 N3        29.69R
HULETT         MOCLDY    23  21  93 SW6       29.68F WCI  16
NEWCASTLE      FAIR      18  10  73 E7        29.70S WCI   8

$$
WYZ014>020-022>026-101>103-260400-
CENTRAL WYOMING

CITY           SKY/WX    TMP DP  RH WIND       PRES   REMARKS
BIG PINEY      FAIR       0  -6  76 N12       29.81S WCI -17
PINEDALE       FAIR      -4  -8  84 NW6       29.81S WCI -16
DUBOIS         FAIR      10  -4  52 NW22      29.67R WCI  -9
LANDER         FAIR      16  -4  41 CALM      29.70R
RIVERTON       FAIR      15   0  51 W25G31    29.69F WCI  -4
CASPER         FAIR      15   4  61 SW18      29.69F WCI  -2
DOUGLAS        FAIR      16   7  67 W14       29.71S WCI   2

$$
WYZ021-027>030-104>119-260400-
SOUTHERN WYOMING

CITY           SKY/WX    TMP DP  RH WIND       PRES   REMARKS
EVANSTON       FAIR       8   3  80 W14       29.87S WCI  -8
FORT BRIDGER   FAIR      11  10  95 W16       29.88S WCI  -6
ROCK SPRINGS   FAIR      12   5  73 W16       29.82S WCI  -5
DIXON            N/A     14   7  73 W7        29.87S WCI   4
RAWLINS        FAIR      12   5  73 W26       29.74F WCI  -8
SARATOGA       FAIR      14   7  73 W21G28    29.77S WCI  -4
LARAMIE        FAIR      12   0  58 W25       29.69F WCI  -8
CHEYENNE       FAIR      16   1  51 W14       29.73F WCI   2
TORRINGTON     FAIR      17   7  64 W9        29.75S WCI   6
PINE BLUFFS    FAIR      18   5  57 W9G20     29.78S WCI   6

$$



USA.gov is the U.S. government's official web portal to all federal, state and local government web resources and services.